Wind_Speed
39 40 42 43 44 45 46 47 47 48 49 50 51 51 52 53 54 55 56 57 58 59 60 61 62 63 63 64 66 67 69 71 72 71 73 75 77 78 78 79 79 79 79
40 42 43 44 45 46 47 48 49 50 51 51 52 53 54 55 56 56 57 58 59 60 61 62 62 63 64 66 67 69 71 73 75 75 76 78 79 80 81 80 80 80 79
42 43 44 45 46 47 48 49 50 51 52 53 54 54 55 56 57 58 59 59 60 61 62 63 64 65 66 68 69 71 74 76 78 79 79 79 80 80 80 79 78 77 75
42 43 44 46 47 48 49 50 52 53 54 54 55 56 56 57 58 59 59 60 61 62 63 64 66 67 69 70 72 75 77 79 81 82 81 80 79 78 78 76 74 72 69
43 45 46 47 48 49 51 52 53 54 54 55 56 56 57 58 59 60 61 61 62 63 64 66 68 70 72 74 77 79 81 82 82 82 81 79 76 75 73 71 68 64 60
45 46 47 48 49 50 51 52 53 54 55 56 56 57 58 59 61 62 62 63 64 65 67 69 71 73 75 78 80 82 83 83 83 81 79 75 72 69 67 63 60 56 51
46 47 48 49 50 51 52 53 54 55 55 56 57 58 59 61 62 63 64 66 67 69 71 73 75 77 79 81 82 83 82 81 80 77 73 70 66 62 59 55 52 49 45
46 47 49 50 51 52 53 54 54 55 56 56 58 59 61 63 64 65 67 69 70 72 74 76 78 80 82 84 84 82 79 76 73 70 67 63 59 55 52 49 46 43 39
47 48 50 51 52 52 53 54 54 55 56 58 59 61 63 64 66 68 70 72 73 74 77 80 82 83 84 84 82 78 73 69 66 64 60 56 52 49 47 45 41 39 35
48 49 50 51 52 52 53 54 55 57 58 60 61 63 65 67 69 71 73 75 77 78 80 82 83 83 82 79 76 72 68 63 59 56 53 49 47 44 43 41 38 36 33
48 49 50 51 52 53 54 55 57 59 60 62 64 65 67 70 72 74 77 79 81 82 82 81 80 79 76 73 70 66 62 58 53 49 46 43 41 39 38 37 35 33 30
48 49 50 51 53 54 55 57 59 61 63 64 66 67 69 72 74 77 80 82 83 83 82 80 77 74 71 67 63 60 56 52 48 44 41 39 37 36 35 34 32 30 29
48 50 51 52 54 55 57 59 61 63 65 67 69 71 72 74 77 80 82 83 83 82 80 77 73 69 65 61 57 54 51 47 43 40 37 35 34 33 32 31 30 29 27
49 50 52 53 55 57 59 61 63 65 68 70 72 75 76 77 80 82 82 81 80 78 76 72 68 63 59 55 51 48 45 42 39 36 34 32 31 30 30 29 28 27 26
50 52 53 55 57 59 61 63 66 68 71 74 76 78 80 80 81 83 82 80 78 76 72 68 63 59 54 50 46 43 40 38 35 33 31 30 29 29 28 27 26 25 24
51 53 55 57 59 61 63 65 68 70 73 76 79 81 82 83 83 82 80 78 75 72 68 63 58 54 49 44 41 38 36 34 32 30 29 28 27 27 27 26 24 23 23
53 55 57 59 61 64 66 69 70 72 75 77 79 82 84 84 82 79 76 74 70 67 62 58 54 49 44 40 36 34 32 31 30 29 28 27 26 26 25 24 23 23 22
55 57 59 62 64 67 69 72 74 76 76 77 79 83 83 81 78 75 72 69 65 60 57 53 49 44 40 36 33 32 30 29 28 28 27 26 26 25 24 23 22 22 22
57 60 62 65 67 70 72 74 76 78 79 81 81 80 78 76 73 70 67 64 60 56 53 48 44 39 36 33 31 30 29 28 27 27 26 26 25 24 23 23 22 22 21
60 63 65 68 70 72 74 76 78 80 82 82 80 77 73 71 68 65 62 60 57 53 49 44 39 36 33 31 30 29 28 27 26 26 25 25 25 24 23 23 22 22 21
63 65 68 70 72 74 76 78 80 82 82 80 76 72 69 67 64 62 59 56 53 49 44 39 36 33 31 30 28 28 27 26 26 26 25 25 24 23 23 22 22 22 22
66 68 69 72 74 76 78 80 82 81 79 75 70 67 64 63 62 59 55 51 48 44 40 36 33 31 29 28 27 27 27 26 26 25 25 24 23 23 22 22 22 21 21
67 69 72 74 76 78 79 81 80 77 74 70 66 63 61 60 58 54 50 46 43 39 36 33 30 28 28 27 27 27 26 25 25 24 24 23 23 23 22 22 22 22 22
70 72 75 77 78 79 79 78 75 72 69 65 62 61 59 56 53 50 46 42 38 35 32 30 28 27 26 27 26 26 26 25 24 24 23 23 23 23 22 22 22 22 22
73 75 77 78 79 78 76 74 70 67 64 62 60 58 55 53 49 45 41 37 34 32 30 28 27 26 26 25 25 25 25 24 24 23 23 23 23 23 23 23 23 23 23
75 77 78 78 77 74 72 68 65 63 61 59 56 54 51 48 44 40 37 34 31 29 28 27 26 26 25 24 24 24 24 24 24 24 23 23 23 23 24 24 24 23 23
Wind_Direction
283 285 287 289 292 293 294 296 297 298 299 299 300 300 300 300 300 300 300 300 300 299 299 299 299 299 298 298 298 298 298 298 297 297 297 296 296 295 294 294 292 291 290
285 287 289 291 292 294 295 296 297 298 299 299 300 300 300 300 300 300 300 300 301 300 300 300 300 299 299 299 299 299 299 299 298 298 298 297 297 296 295 294 293 293 291
286 288 290 292 293 295 296 297 298 299 299 299 300 301 301 301 301 301 301 302 302 301 301 301 301 300 300 300 300 300 300 300 300 299 299 299 298 297 295 295 294 293 291
288 290 292 293 295 296 297 298 299 299 300 300 301 301 302 302 302 302 302 302 302 302 302 302 302 302 301 301 301 301 301 301 301 301 300 299 298 297 296 294 293 292 290
290 291 293 294 295 297 298 299 299 300 300 301 302 302 302 303 303 303 303 303 303 303 303 303 303 302 302 302 302 302 302 302 302 302 301 300 298 297 295 294 293 291 290
291 293 294 295 297 298 299 299 299 300 301 302 302 303 303 303 303 304 304 304 304 304 304 304 303 304 304 304 304 304 304 304 303 302 301 300 298 297 295 294 293 291 289
292 294 295 297 298 298 299 299 300 301 302 302 303 303 304 304 304 304 304 305 305 305 305 305 305 305 305 305 305 305 305 304 303 302 301 300 299 297 295 294 293 291 289
294 295 296 297 298 298 299 300 300 301 302 303 303 304 304 304 305 305 305 305 306 306 306 306 306 306 306 306 305 305 304 303 302 301 301 300 299 297 296 295 293 292 289
295 296 296 297 298 299 299 300 301 302 303 304 304 305 305 305 305 306 306 306 306 306 306 307 307 307 306 306 305 304 303 302 301 300 300 299 298 297 296 295 294 292 290
296 296 297 298 299 299 300 301 302 303 304 305 305 305 306 306 306 306 306 306 307 307 307 308 308 307 307 306 305 304 303 302 300 300 299 298 297 296 295 295 294 293 290
296 297 298 299 300 300 301 302 303 304 305 305 306 306 307 307 307 307 307 307 308 308 308 308 308 307 307 306 305 304 303 302 301 300 298 297 295 294 295 294 293 292 291
297 298 299 300 301 301 302 303 304 305 305 306 306 307 307 308 307 307 308 308 308 309 309 309 308 307 307 306 305 303 302 301 300 300 298 296 295 294 294 293 292 291 290
297 298 299 301 302 302 303 304 305 305 306 307 307 308 308 308 308 308 308 309 309 309 309 309 309 308 307 306 304 302 301 300 299 298 297 295 294 295 294 292 291 290 290
298 299 301 302 303 303 304 305 306 306 307 308 308 308 308 308 308 308 308 309 309 309 309 309 308 307 306 304 302 301 299 298 297 296 296 294 294 294 293 291 289 288 288
300 301 302 303 303 304 305 306 307 308 308 308 309 309 309 309 309 309 309 309 309 309 308 308 308 306 305 302 300 299 297 296 294 294 294 293 293 293 292 290 288 287 286
301 302 303 303 304 305 306 307 308 308 309 310 310 310 310 310 310 310 310 309 309 309 308 308 308 306 304 302 299 297 295 294 292 292 292 292 292 292 291 289 286 285 284
302 302 303 304 305 306 307 307 308 309 310 310 310 310 311 311 311 310 310 310 309 309 308 307 307 305 303 300 298 296 294 292 290 290 291 291 291 292 290 287 284 283 283
303 303 304 305 306 307 307 308 309 310 310 310 310 311 311 310 310 310 310 310 309 309 308 307 305 303 300 298 296 294 293 291 288 288 289 289 290 291 289 285 282 281 282
304 304 305 306 307 307 308 309 310 310 310 311 311 311 310 310 310 311 310 310 309 308 307 305 303 300 297 295 293 292 291 289 287 286 287 288 289 289 287 283 281 280 280
305 305 306 307 308 308 309 310 310 311 311 312 311 311 310 310 311 310 310 309 308 307 306 303 300 297 294 292 291 291 290 288 285 285 286 287 288 287 285 281 280 278 278
305 306 307 308 308 309 310 310 311 311 312 312 312 311 311 311 312 311 310 309 308 306 304 301 298 295 292 290 289 289 289 287 284 283 284 286 287 285 283 279 278 277 277
306 307 308 308 309 310 310 311 311 312 312 312 311 311 311 312 312 312 311 309 308 306 303 300 296 292 289 288 288 288 288 286 283 282 283 285 284 283 281 278 277 276 276
307 308 309 309 310 310 311 311 312 312 312 311 311 311 311 312 312 312 311 309 308 306 303 300 296 291 289 288 288 288 286 285 283 282 282 282 281 281 279 276 276 276 276
308 309 310 310 310 311 311 312 312 312 312 311 311 311 311 311 311 310 309 308 307 305 303 300 295 292 290 289 288 286 285 283 281 281 281 280 279 278 277 276 276 276 276
309 309 310 310 311 311 311 312 312 312 312 312 311 311 310 310 310 309 308 307 305 304 302 299 295 292 290 289 287 285 283 281 279 280 281 280 279 278 276 276 275 275 275
309 310 310 311 311 311 312 312 312 312 312 312 312 311 310 310 309 308 307 305 304 302 300 298 296 293 291 289 287 284 282 280 279 280 281 280 279 278 276 276 275 275 274
Height
5725 5723 5720 5717 5714 5710 5707 5703 5698 5694 5690 5685 5680 5675 5670 5665 5660 5654 5649 5643 5637 5631 5625 5619 5613 5607 5601 5594 5587 5581 5574 5566 5562 5559 5551 5543 5535 5528 5523 5516 5510 5505 5500
5716 5713 5710 5707 5704 5700 5696 5692 5687 5683 5678 5673 5668 5663 5657 5652 5646 5641 5635 5630 5624 5617 5611 5604 5598 5591 5585 5578 5570 5563 5556 5548 5541 5537 5532 5523 5514 5505 5498 5492 5486 5480 5474
5706 5703 5700 5697 5693 5689 5685 5680 5676 5671 5666 5661 5655 5650 5644 5639 5633 5627 5622 5616 5609 5603 5596 5589 5582 5575 5568 5560 5553 5545 5537 5529 5520 5513 5509 5500 5492 5482 5475 5468 5462 5456 5450
5696 5693 5690 5686 5682 5678 5673 5669 5664 5658 5653 5648 5642 5636 5631 5625 5619 5613 5607 5601 5594 5587 5580 5572 5565 5558 5550 5542 5535 5526 5517 5508 5499 5491 5484 5477 5469 5459 5451 5445 5440 5434 5429
5686 5682 5679 5675 5670 5666 5661 5656 5651 5646 5640 5635 5629 5623 5617 5610 5604 5598 5593 5586 5579 5572 5564 5556 5548 5540 5531 5523 5514 5505 5496 5487 5477 5468 5460 5453 5446 5436 5429 5422 5418 5414 5410
5675 5671 5667 5663 5659 5654 5649 5644 5638 5633 5627 5621 5615 5609 5603 5596 5590 5583 5576 5570 5563 5556 5548 5539 5531 5521 5512 5503 5493 5483 5472 5462 5453 5444 5437 5430 5423 5415 5408 5402 5397 5394 5393
5664 5660 5656 5652 5647 5642 5637 5631 5626 5620 5614 5608 5602 5595 5589 5581 5574 5567 5560 5553 5546 5538 5529 5521 5512 5502 5491 5482 5472 5462 5451 5439 5429 5421 5415 5408 5401 5395 5389 5385 5381 5378 5376
5653 5648 5644 5639 5634 5629 5624 5619 5613 5607 5601 5595 5588 5581 5574 5566 5558 5551 5543 5536 5529 5520 5510 5501 5491 5482 5470 5459 5451 5442 5432 5421 5410 5401 5395 5389 5383 5377 5372 5369 5366 5364 5363
5641 5637 5632 5627 5622 5617 5611 5605 5600 5594 5587 5581 5574 5566 5559 5551 5542 5534 5525 5518 5511 5502 5492 5481 5469 5459 5449 5436 5427 5419 5412 5403 5393 5385 5378 5372 5367 5363 5358 5355 5353 5351 5351
5629 5624 5619 5614 5609 5604 5598 5592 5586 5580 5574 5567 5559 5551 5543 5535 5526 5516 5507 5499 5492 5484 5474 5462 5448 5436 5426 5414 5404 5397 5391 5384 5377 5371 5364 5359 5354 5350 5346 5343 5341 5339 5339
5617 5612 5607 5602 5596 5591 5585 5579 5572 5566 5560 5552 5545 5537 5527 5518 5508 5498 5487 5477 5468 5461 5452 5441 5429 5416 5405 5395 5386 5378 5371 5365 5360 5356 5351 5347 5343 5339 5336 5333 5331 5329 5329
5604 5599 5594 5589 5583 5577 5571 5565 5558 5551 5544 5536 5528 5521 5511 5500 5490 5479 5469 5458 5446 5436 5428 5419 5408 5397 5386 5377 5369 5361 5355 5350 5346 5342 5338 5335 5332 5329 5326 5324 5322 5320 5319
5592 5587 5581 5576 5570 5563 5557 5550 5543 5535 5527 5519 5511 5503 5495 5484 5472 5460 5449 5438 5426 5415 5406 5397 5387 5377 5368 5361 5353 5347 5341 5337 5333 5330 5327 5324 5321 5319 5317 5315 5313 5312 5311
5579 5574 5568 5563 5556 5550 5542 5535 5527 5519 5510 5502 5493 5484 5476 5467 5454 5441 5430 5419 5408 5396 5386 5378 5369 5360 5352 5345 5339 5333 5328 5324 5321 5319 5317 5314 5312 5310 5308 5306 5305 5304 5303
5567 5561 5555 5549 5543 5536 5528 5520 5512 5503 5492 5483 5473 5463 5453 5446 5434 5420 5408 5398 5387 5377 5367 5360 5352 5344 5338 5331 5326 5321 5317 5313 5311 5309 5307 5305 5303 5301 5299 5298 5297 5297 5296
5554 5548 5542 5535 5528 5521 5513 5506 5496 5486 5476 5464 5452 5441 5431 5421 5410 5399 5387 5376 5366 5356 5348 5341 5334 5328 5322 5317 5313 5309 5306 5303 5301 5299 5298 5296 5295 5293 5291 5290 5289 5289 5289
5541 5535 5528 5521 5513 5505 5497 5488 5481 5473 5461 5448 5435 5422 5410 5399 5388 5378 5367 5357 5348 5339 5331 5324 5318 5313 5308 5304 5301 5298 5296 5293 5291 5290 5289 5288 5286 5285 5283 5282 5282 5281 5281
5527 5520 5513 5505 5497 5489 5479 5470 5460 5451 5444 5434 5420 5405 5391 5380 5369 5358 5348 5339 5332 5323 5315 5309 5304 5299 5295 5292 5290 5288 5286 5284 5282 5281 5280 5279 5278 5277 5276 5275 5274 5274 5274
5512 5505 5498 5490 5481 5471 5462 5452 5441 5431 5421 5411 5401 5389 5373 5362 5352 5341 5330 5321 5314 5308 5301 5295 5291 5287 5284 5281 5280 5278 5276 5275 5273 5272 5271 5271 5270 5269 5268 5267 5267 5267 5267
5497 5490 5481 5473 5464 5454 5444 5433 5422 5411 5400 5389 5378 5367 5355 5344 5335 5326 5316 5306 5299 5293 5287 5282 5278 5275 5273 5271 5270 5268 5267 5266 5264 5264 5263 5262 5261 5261 5260 5260 5260 5260 5260
5482 5474 5464 5455 5445 5435 5425 5414 5403 5391 5380 5369 5358 5347 5335 5326 5318 5309 5300 5292 5285 5278 5273 5270 5267 5265 5263 5261 5260 5259 5258 5257 5256 5255 5254 5254 5253 5253 5252 5252 5252 5252 5252
5466 5457 5448 5438 5428 5417 5406 5395 5383 5371 5360 5349 5340 5330 5320 5310 5301 5293 5285 5278 5271 5265 5261 5258 5256 5254 5252 5251 5250 5250 5249 5248 5247 5246 5246 5245 5245 5244 5244 5244 5244 5245 5245
5448 5439 5430 5420 5409 5398 5387 5376 5363 5352 5341 5331 5322 5313 5305 5296 5287 5279 5272 5265 5259 5254 5250 5247 5246 5244 5243 5242 5241 5240 5240 5239 5238 5238 5237 5237 5237 5236 5236 5236 5236 5237 5237
5431 5421 5411 5401 5390 5379 5368 5356 5345 5334 5324 5314 5306 5297 5289 5281 5274 5266 5260 5254 5249 5245 5241 5238 5236 5235 5234 5233 5232 5231 5230 5230 5229 5229 5229 5229 5229 5228 5228 5228 5229 5229 5229
5413 5403 5392 5381 5370 5359 5348 5338 5327 5317 5307 5298 5290 5282 5274 5267 5261 5254 5248 5243 5239 5236 5232 5230 5228 5226 5225 5224 5223 5222 5222 5221 5221 5221 5221 5221 5221 5220 5220 5220 5221 5221 5221
5394 5384 5373 5362 5351 5340 5330 5320 5310 5301 5292 5283 5275 5267 5260 5254 5248 5243 5238 5234 5230 5227 5224 5222 5220 5218 5217 5215 5214 5214 5213 5213 5212 5212 5212 5212 5212 5212 5212 5212 5212 5212 5213